Home   Weather   Borrego Springs   Past weeks
Flag for USA

Past Weather in Borrego Springs, California, USA — Yesterday and Last 2 Weeks

Now
109 °F

Sunny.


Feels Like: 103 °F
Forecast: 111 / 78 °F
Wind: 3 mph from North

Location: Thermal Airport

Current Time: Aug 19, 2019 at 5:55:51 pm

Latest Report: Aug 19, 2019 at 4:52 pm


Visibility: 10 mi

Pressure: 29.70 "Hg

Humidity: 8%

Dew Point: 36 °F

Location of Borrego SpringsLocation

Past Weather in Borrego Springs — Graph

°F

Borrego Springs Temperature Yesterday

Maximum temperature yesterday: 106 °F (at 2:52 pm)
Minimum temperature yesterday: 77 °F (at 6:52 am)
Average temperature yesterday: 94 °F

High & Low Weather Summary for the Past Weeks

 TemperatureHumidityPressure
High118 °F (Aug 5, 1:52 pm)54% (Aug 13, 4:52 am)29.89 "Hg (Aug 13, 4:52 am)
Low69 °F (Aug 17, 5:52 am)5% (Aug 5, 11:52 am)29.59 "Hg (Aug 17, 6:52 pm)
Average97 °F21%29.75 "Hg
* Reported Aug 4 3:52 pm — Aug 19 3:52 pm, Borrego Springs. Weather by CustomWeather, © 2019

Note: Actual official high and low records may vary slightly from our data, if they occured in-between our weather recording intervals... More about our weather records

Advertising

Borrego Springs Weather History for the Previous 24 Hours

Scroll right to see more
 ConditionsComfort  
Time TempWeatherWind HumidityBarometerVisibility
3:52 pm
Mon, Aug 19
109 °FSunny.3 mph8%29.71 "Hg10 mi
2:52 pm108 °FSunny.No wind9%29.74 "Hg10 mi
1:52 pm106 °FSunny.7 mph13%29.76 "Hg10 mi
12:52 pm104 °FSunny.5 mph16%29.79 "Hg10 mi
11:52 am101 °FSunny.6 mph17%29.81 "Hg10 mi
10:52 am97 °FSunny.3 mph21%29.82 "Hg10 mi
9:52 am96 °FSunny.3 mph20%29.82 "Hg10 mi
8:52 am89 °FSunny.No wind29%29.81 "Hg10 mi
7:52 am83 °FSunny.No wind36%29.83 "Hg10 mi
6:52 am74 °FSunny.3 mph52%29.79 "Hg10 mi
5:52 am75 °FClear.3 mph47%29.77 "Hg10 mi
4:52 am82 °FClear.No wind35%29.75 "Hg10 mi
3:52 am87 °FPleasantly warm.9 mph29%29.74 "Hg10 mi
2:52 am88 °FClear.9 mph29%29.73 "Hg10 mi
1:52 am88 °FClear.12 mph30%29.73 "Hg10 mi
12:52 am89 °FClear.9 mph29%29.73 "Hg10 mi
11:52 pm
Sun, Aug 18
91 °FClear.12 mph28%29.72 "Hg10 mi
10:52 pm93 °FClear.13 mph26%29.72 "Hg10 mi
9:52 pm94 °FClear.8 mph23%29.72 "Hg10 mi
8:52 pm94 °FClear.7 mph19%29.70 "Hg10 mi
7:52 pm92 °FClear.6 mph22%29.67 "Hg10 mi
6:52 pm102 °FSunny.No wind15%29.67 "Hg10 mi
5:52 pm106 °FSunny.3 mph9%29.67 "Hg10 mi
Weather by CustomWeather, © 2019

See weather overview